START_TIME,STEP,MOV.,M6,t_acc.,M7,t_acc.,M19,t_acc.,H36,t_acc.
1979-07-28 09:00:26.290 ,0,0,0.,12.0,0.,12.0,0.,12.0,0.,12.0
1979-07-28 09:00:38.290 ,0,0,0.,12.0,0.,12.0,0.,12.0,0.,12.0
1979-07-28 09:00:50.290 ,0,1,0.,12.0,0.,12.0,0.,12.0,0.,12.0
1979-07-28 09:01:02.290 ,0,1,0.,12.0,0.,12.0,0.,12.0,0.,12.0
1979-07-28 09:01:14.290 ,0,0,0.,12.0,0.,12.0,0.,12.0,0.,12.0
1979-07-28 09:01:26.290 ,0,0,0.,12.0,0.,12.0,0.,12.0,0.,12.0
1979-07-28 09:01:38.290 ,1,1,0.,12.0,0.,12.0,0.,12.0,0.,12.0
1979-07-28 09:01:50.290 ,1,1,0.,12.0,0.,12.0,0.,12.0,0.,12.0
1979-07-28 09:02:02.290 ,1,0,0.,12.0,0.,12.0,0.,12.0,0.,12.0
1979-07-28 09:02:14.290 ,1,0,0.,12.0,0.,12.0,0.,12.0,0.,12.0
1979-07-28 09:02:26.290 ,2,1,0.,12.0,0.,12.0,0.,12.0,0.,12.0
1979-07-28 09:02:38.290 ,2,1,0.,12.0,0.,12.0,0.,12.0,0.,12.0
1979-07-28 09:02:50.290 ,2,0,0.,12.0,0.,12.0,0.,12.0,0.,12.0
1979-07-28 09:03:02.290 ,2,0,0.,12.0,0.,12.0,0.,12.0,0.,12.0
1979-07-28 09:03:14.290 ,3,1,0.,12.0,0.,12.0,0.,12.0,0.,12.0
1979-07-28 09:03:26.290 ,3,1,0.,12.0,0.,12.0,0.,12.0,0.,12.0
1979-07-28 09:03:38.290 ,3,0,0.,12.0,0.,12.0,0.,12.0,0.,12.0
1979-07-28 09:03:50.290 ,3,0,0.,12.0,0.,12.0,0.,12.0,0.,12.0
1979-07-28 09:04:02.290 ,4,1,0.,12.0,0.,12.0,0.,12.0,0.,12.0
1979-07-28 09:04:14.290 ,4,1,0.,12.0,0.,12.0,0.,12.0,0.,12.0
1979-07-28 09:04:26.290 ,4,0,0.,12.0,0.,12.0,0.,12.0,0.,12.0
1979-07-28 09:04:38.290 ,4,0,0.,12.0,0.,12.0,0.,12.0,0.,12.0
1979-07-28 09:04:50.290 ,5,1,0.,12.0,0.,12.0,0.,12.0,0.,12.0
1979-07-28 09:05:02.290 ,5,1,0.,12.0,0.,12.0,0.,12.0,0.,12.0
1979-07-28 09:05:14.290 ,5,0,0.,12.0,0.,12.0,0.,12.0,0.,12.0
1979-07-28 09:05:26.290 ,5,0,0.,12.0,0.,12.0,0.,12.0,0.,12.0
1979-07-28 09:05:38.290 ,6,1,0.,12.0,0.,12.0,0.,12.0,0.,12.0
1979-07-28 09:05:50.290 ,6,1,0.,12.0,0.,12.0,0.,12.0,0.,12.0
1979-07-28 09:06:02.290 ,6,0,0.,12.0,0.,12.0,0.,12.0,0.,12.0
1979-07-28 09:06:14.290 ,6,0,0.,12.0,0.,12.0,0.,12.0,0.,12.0
1979-07-28 09:06:26.290 ,7,0,0.,12.0,0.,12.0,0.,12.0,0.,12.0
1979-07-28 09:06:38.290 ,7,0,0.,12.0,0.,12.0,0.,12.0,0.,12.0
1979-07-28 09:06:50.290 ,7,0,0.,12.0,0.,12.0,0.,12.0,0.,12.0
1979-07-28 09:07:02.290 ,7,0,0.,12.0,0.,12.0,0.,12.0,0.,12.0
1979-07-28 09:07:14.290 ,4,1,0.,12.0,0.,12.0,0.,12.0,0.,12.0
1979-07-28 09:07:26.290 ,4,1,0.,12.0,0.,12.0,0.,12.0,0.,12.0
1979-07-28 09:07:38.290 ,0,1,0.,12.0,0.,12.0,0.,12.0,0.,12.0
1979-07-28 09:07:50.290 ,0,1,0.,12.0,0.,12.0,0.,12.0,0.,12.0
1979-07-28 09:08:02.290 ,3,1,0.,12.0,0.,12.0,0.,12.0,0.,12.0
1979-07-28 09:08:14.290 ,3,1,0.,12.0,0.,12.0,0.,12.0,0.,12.0
1979-07-28 09:08:26.290 ,7,1,0.,12.0,0.,12.0,0.,12.0,0.,12.0
1979-07-28 09:08:38.290 ,7,1,0.,12.0,0.,12.0,0.,12.0,0.,12.0
1979-07-28 09:08:50.290 ,4,1,0.,12.0,0.,12.0,0.,12.0,0.,12.0
1979-07-28 09:09:02.290 ,4,1,0.,12.0,0.,12.0,0.,12.0,0.,12.0
1979-07-28 09:09:14.290 ,0,1,0.,12.0,0.,12.0,0.,12.0,0.,12.0
1979-07-28 09:09:26.290 ,0,1,0.,12.0,0.,12.0,0.,12.0,0.,12.0
1979-07-28 09:09:38.290 ,3,1,0.,12.0,0.,12.0,0.,12.0,0.,12.0
1979-07-28 09:09:50.290 ,3,1,0.,12.0,0.,12.0,0.,12.0,0.,12.0
1979-07-28 09:10:02.290 ,7,1,0.,12.0,0.,12.0,0.,12.0,0.,12.0
1979-07-28 09:10:14.290 ,7,1,0.,12.0,0.,12.0,0.,12.0,0.,12.0
1979-07-28 09:10:26.290 ,4,1,0.,12.0,0.,12.0,0.,12.0,0.,12.0
1979-07-28 09:10:38.290 ,4,1,0.,12.0,0.,12.0,0.,12.0,0.,12.0
1979-07-28 09:10:50.290 ,0,1,0.,12.0,0.,12.0,0.,12.0,0.,12.0
1979-07-28 09:11:02.290 ,0,1,0.,12.0,0.,12.0,0.,12.0,0.,12.0
1979-07-28 09:11:14.290 ,3,1,0.,12.0,0.,12.0,0.,12.0,0.,12.0
1979-07-28 09:11:26.290 ,3,1,0.,12.0,0.,12.0,0.,12.0,0.,12.0
1979-07-28 09:11:38.290 ,7,1,0.,12.0,0.,12.0,0.,12.0,0.,12.0
1979-07-28 09:11:50.290 ,7,1,0.,12.0,0.,12.0,0.,12.0,0.,12.0
1979-07-28 09:12:02.290 ,4,1,0.,12.0,0.,12.0,0.,12.0,0.,12.0
1979-07-28 09:12:14.290 ,4,1,0.,12.0,0.,12.0,0.,12.0,0.,12.0
1979-07-28 09:12:26.290 ,0,1,0.,12.0,0.,12.0,0.,12.0,0.,12.0
1979-07-28 09:12:38.290 ,0,1,0.,12.0,0.,12.0,0.,12.0,0.,12.0
1979-07-28 09:12:50.290 ,3,1,0.,12.0,0.,12.0,0.,12.0,0.,12.0
1979-07-28 09:13:02.290 ,3,1,0.,12.0,0.,12.0,0.,12.0,0.,12.0
1979-07-28 09:13:14.290 ,7,1,0.,12.0,0.,12.0,0.,12.0,0.,12.0
1979-07-28 09:13:26.290 ,7,1,0.,12.0,0.,12.0,0.,12.0,0.,12.0
1979-07-28 09:13:38.290 ,4,1,0.,12.0,0.,12.0,0.,12.0,0.,12.0
1979-07-28 09:13:50.290 ,4,1,0.,12.0,0.,12.0,0.,12.0,0.,12.0
1979-07-28 09:14:02.290 ,0,1,0.,12.0,0.,12.0,0.,12.0,0.,12.0
1979-07-28 09:14:14.290 ,0,1,0.,12.0,0.,12.0,0.,12.0,0.,12.0
1979-07-28 09:14:26.290 ,3,1,0.,12.0,0.,12.0,0.,12.0,0.,12.0
1979-07-28 09:14:38.290 ,3,1,0.,12.0,0.,12.0,0.,12.0,0.,12.0
1979-07-28 09:14:50.290 ,7,1,0.,12.0,0.,12.0,0.,12.0,0.,12.0
1979-07-28 09:15:02.290 ,7,1,0.,12.0,0.,12.0,0.,12.0,0.,12.0
1979-07-28 09:15:14.290 ,4,1,0.,12.0,0.,12.0,0.,12.0,0.,12.0
1979-07-28 09:15:26.290 ,4,1,0.,12.0,0.,12.0,0.,12.0,0.,12.0
1979-07-28 09:15:38.290 ,0,1,0.,12.0,0.,12.0,0.,12.0,0.,12.0
1979-07-28 09:15:50.290 ,0,1,0.,12.0,0.,12.0,0.,12.0,0.,12.0
1979-07-28 09:16:02.290 ,3,1,0.,12.0,0.,12.0,0.,12.0,0.,12.0
1979-07-28 09:16:14.290 ,3,1,0.,12.0,0.,12.0,0.,12.0,0.,12.0
1979-07-28 09:16:26.290 ,7,1,0.,12.0,0.,12.0,0.,12.0,0.,12.0
1979-07-28 09:16:38.290 ,7,1,0.,12.0,0.,12.0,0.,12.0,0.,12.0
1979-07-28 09:16:50.290 ,4,1,0.,12.0,0.,12.0,0.,12.0,0.,12.0
1979-07-28 09:17:02.290 ,4,1,0.,12.0,0.,12.0,0.,12.0,0.,12.0
1979-07-28 09:17:14.290 ,0,1,0.,12.0,0.,12.0,0.,12.0,0.,12.0
1979-07-28 09:17:26.290 ,0,1,0.,12.0,0.,12.0,0.,12.0,0.,12.0
1979-07-28 09:17:38.290 ,0,0,0.,12.0,0.,12.0,0.,12.0,0.,12.0
1979-07-28 09:17:50.290 ,0,0,0.,12.0,0.,12.0,0.,12.0,0.,12.0
1979-07-28 09:18:02.290 ,0,0,0.,12.0,0.,12.0,0.,12.0,0.,12.0
1979-07-28 09:18:14.290 ,0,0,0.,12.0,0.,12.0,0.,12.0,0.,12.0
1979-07-28 09:18:26.290 ,5,1,0.,12.0,0.,12.0,0.,12.0,0.,12.0
1979-07-28 09:18:38.290 ,5,1,0.,12.0,0.,12.0,0.,12.0,0.,12.0
1979-07-28 09:18:50.290 ,5,0,0.,12.0,0.,12.0,0.,12.0,0.,12.0
1979-07-28 09:19:02.290 ,5,0,0.,12.0,0.,12.0,0.,12.0,0.,12.0
1979-07-28 09:19:14.290 ,4,1,0.,12.0,0.,12.0,0.,12.0,0.,12.0
1979-07-28 09:19:26.290 ,4,1,0.,12.0,0.,12.0,0.,12.0,0.,12.0
1979-07-28 09:19:38.290 ,4,0,0.,12.0,0.,12.0,0.,12.0,0.,12.0
1979-07-28 09:19:50.290 ,4,0,0.,12.0,0.,12.0,0.,12.0,0.,12.0
1979-07-28 09:20:02.290 ,3,1,0.,12.0,0.,12.0,0.,12.0,0.,12.0
1979-07-28 09:20:14.290 ,3,1,0.,12.0,0.,12.0,0.,12.0,0.,12.0
1979-07-28 09:20:26.290 ,3,0,0.,12.0,0.,12.0,0.,12.0,0.,12.0
1979-07-28 09:20:38.290 ,3,0,0.,12.0,0.,12.0,0.,12.0,0.,12.0
1979-07-28 09:20:50.290 ,2,1,0.,12.0,0.,12.0,0.,12.0,0.,12.0
1979-07-28 09:21:02.290 ,2,1,0.,12.0,0.,12.0,0.,12.0,0.,12.0
1979-07-28 09:21:14.290 ,2,0,0.,12.0,0.,12.0,0.,12.0,0.,12.0
1979-07-28 09:21:26.290 ,2,0,0.,12.0,0.,12.0,0.,12.0,0.,12.0
1979-07-28 09:21:38.290 ,1,1,0.,12.0,0.,12.0,0.,12.0,0.,12.0
1979-07-28 09:21:50.290 ,1,1,0.,12.0,0.,12.0,0.,12.0,0.,12.0
1979-07-28 09:22:02.290 ,1,0,0.,12.0,0.,12.0,0.,12.0,0.,12.0
1979-07-28 09:22:14.290 ,1,0,0.,12.0,0.,12.0,0.,12.0,0.,12.0
1979-07-28 09:22:26.290 ,0,1,0.,12.0,0.,12.0,0.,12.0,0.,12.0
1979-07-28 09:22:38.290 ,0,1,0.,12.0,0.,12.0,0.,12.0,0.,12.0
1979-07-28 09:22:50.290 ,0,0,0.,12.0,0.,12.0,0.,12.0,0.,12.0
1979-07-28 09:23:02.290 ,0,0,0.,12.0,0.,12.0,0.,12.0,0.,12.0
1979-07-28 09:23:14.290 ,0,1,0.,12.0,0.,12.0,0.,12.0,0.,12.0
1979-07-28 09:23:26.290 ,0,1,0.,12.0,0.,12.0,0.,12.0,0.,12.0
1979-07-28 09:23:38.290 ,0,0,0.,12.0,0.,12.0,0.,12.0,0.,12.0
1979-07-28 09:23:50.290 ,0,0,0.,12.0,0.,12.0,0.,12.0,0.,12.0
1979-07-28 09:24:02.290 ,1,1,0.,12.0,0.,12.0,0.,12.0,0.,12.0
1979-07-28 09:24:14.290 ,1,1,0.,12.0,0.,12.0,0.,12.0,0.,12.0
1979-07-28 09:24:26.290 ,1,0,0.,12.0,0.,12.0,0.,12.0,0.,12.0
1979-07-28 09:24:38.290 ,1,0,0.,12.0,0.,12.0,0.,12.0,0.,12.0
1979-07-28 09:24:50.290 ,2,1,0.,12.0,0.,12.0,0.,12.0,0.,12.0
1979-07-28 09:25:02.290 ,2,1,0.,12.0,0.,12.0,0.,12.0,0.,12.0
1979-07-28 09:25:14.290 ,2,0,0.,12.0,0.,12.0,0.,12.0,0.,12.0
1979-07-28 09:25:26.290 ,2,0,0.,12.0,0.,12.0,0.,12.0,0.,12.0
1979-07-28 09:25:38.290 ,3,1,0.,12.0,0.,12.0,0.,12.0,0.,12.0
1979-07-28 09:25:50.290 ,3,1,0.,12.0,0.,12.0,0.,12.0,0.,12.0
1979-07-28 09:26:02.290 ,3,0,0.,12.0,0.,12.0,0.,12.0,0.,12.0
1979-07-28 09:26:14.290 ,3,0,0.,12.0,0.,12.0,0.,12.0,0.,12.0
1979-07-28 09:26:26.290 ,4,1,0.,12.0,0.,12.0,0.,12.0,0.,12.0
1979-07-28 09:26:38.290 ,4,1,0.,12.0,0.,12.0,0.,12.0,0.,12.0
1979-07-28 09:26:50.290 ,4,0,0.,12.0,0.,12.0,0.,12.0,0.,12.0
1979-07-28 09:27:02.290 ,4,0,0.,12.0,0.,12.0,0.,12.0,0.,12.0
1979-07-28 09:27:14.290 ,5,1,0.,12.0,0.,12.0,0.,12.0,0.,12.0
1979-07-28 09:27:26.290 ,5,1,0.,12.0,0.,12.0,0.,12.0,0.,12.0
1979-07-28 09:27:38.290 ,5,0,0.,12.0,0.,12.0,0.,12.0,0.,12.0
1979-07-28 09:27:50.290 ,5,0,0.,12.0,0.,12.0,0.,12.0,0.,12.0
1979-07-28 09:28:02.290 ,6,1,0.,12.0,0.,12.0,0.,12.0,0.,12.0
1979-07-28 09:28:14.290 ,6,1,0.,12.0,0.,12.0,0.,12.0,0.,12.0
1979-07-28 09:28:26.290 ,6,0,0.,12.0,0.,12.0,0.,12.0,0.,12.0
1979-07-28 09:28:38.290 ,6,0,0.,12.0,0.,12.0,0.,12.0,0.,12.0
1979-07-28 09:28:50.290 ,7,1,0.,12.0,0.,12.0,0.,12.0,0.,12.0
1979-07-28 09:29:02.290 ,7,1,0.,12.0,0.,12.0,0.,12.0,0.,12.0
1979-07-28 09:29:14.290 ,7,0,0.,12.0,0.,12.0,0.,12.0,0.,12.0
1979-07-28 09:29:26.290 ,7,0,0.,12.0,0.,12.0,0.,12.0,0.,12.0
1979-07-28 09:29:38.290 ,7,1,0.,12.0,0.,12.0,0.,12.0,0.,12.0
1979-07-28 09:29:50.290 ,7,1,0.,12.0,0.,12.0,0.,12.0,0.,12.0
1979-07-28 09:30:02.290 ,7,0,0.,12.0,0.,12.0,0.,12.0,0.,12.0
1979-07-28 09:30:14.290 ,7,0,0.,12.0,0.,12.0,0.,12.0,0.,12.0
1979-07-28 09:30:26.290 ,6,1,0.,12.0,0.,12.0,0.,12.0,0.,12.0
1979-07-28 09:30:38.290 ,6,1,0.,12.0,0.,12.0,0.,12.0,0.,12.0
1979-07-28 09:30:50.290 ,6,0,0.,12.0,0.,12.0,0.,12.0,0.,12.0
1979-07-28 09:31:02.290 ,6,0,0.,12.0,0.,12.0,0.,12.0,0.,12.0
1979-07-28 09:31:14.290 ,5,1,0.,12.0,0.,12.0,0.,12.0,0.,12.0
1979-07-28 09:31:26.290 ,5,1,0.,12.0,0.,12.0,0.,12.0,0.,12.0
1979-07-28 09:31:38.290 ,5,0,0.,12.0,0.,12.0,0.,12.0,0.,12.0
1979-07-28 09:31:50.290 ,5,0,0.,12.0,0.,12.0,0.,12.0,0.,12.0
1979-07-28 09:32:02.290 ,4,1,0.,12.0,0.,12.0,0.,12.0,0.,12.0
1979-07-28 09:32:14.290 ,4,1,0.,12.0,0.,12.0,0.,12.0,0.,12.0
1979-07-28 09:32:26.290 ,4,0,0.,12.0,0.,12.0,0.,12.0,0.,12.0
1979-07-28 09:32:38.290 ,4,0,0.,12.0,0.,12.0,0.,12.0,0.,12.0
1979-07-28 09:32:50.290 ,3,1,0.,12.0,0.,12.0,0.,12.0,0.,12.0
1979-07-28 09:33:02.290 ,3,1,0.,12.0,0.,12.0,0.,12.0,0.,12.0
1979-07-28 09:33:14.290 ,3,0,0.,12.0,0.,12.0,0.,12.0,0.,12.0
1979-07-28 09:33:26.290 ,3,0,0.,12.0,0.,12.0,0.,12.0,0.,12.0
1979-07-28 09:33:38.290 ,2,1,0.,12.0,0.,12.0,0.,12.0,0.,12.0
1979-07-28 09:33:50.290 ,2,1,0.,12.0,0.,12.0,0.,12.0,0.,12.0
1979-07-28 09:34:02.290 ,2,0,0.,12.0,0.,12.0,0.,12.0,0.,12.0
1979-07-28 09:34:14.290 ,2,0,0.,12.0,0.,12.0,0.,12.0,0.,12.0
1979-07-28 09:34:26.290 ,1,1,0.,12.0,0.,12.0,0.,12.0,0.,12.0
1979-07-28 09:34:38.290 ,1,1,0.,12.0,0.,12.0,0.,12.0,0.,12.0
1979-07-28 09:34:50.290 ,1,0,0.,12.0,0.,12.0,0.,12.0,0.,12.0
1979-07-28 09:35:02.290 ,1,0,0.,12.0,0.,12.0,0.,12.0,0.,12.0
1979-07-28 09:35:14.290 ,0,1,0.,12.0,0.,12.0,0.,12.0,0.,12.0
1979-07-28 09:35:26.290 ,0,1,0.,12.0,0.,12.0,0.,12.0,0.,12.0
1979-07-28 09:35:38.290 ,0,0,0.,12.0,0.,12.0,0.,12.0,0.,12.0
1979-07-28 09:35:50.290 ,0,0,0.,12.0,0.,12.0,0.,12.0,0.,12.0
1979-07-28 09:36:02.290 ,0,1,0.,12.0,0.,12.0,0.,12.0,0.,12.0
1979-07-28 09:36:14.290 ,0,1,0.,12.0,0.,12.0,0.,12.0,0.,12.0
1979-07-28 09:36:26.290 ,0,0,0.,12.0,0.,12.0,0.,12.0,0.,12.0
1979-07-28 09:36:38.290 ,0,0,0.,12.0,0.,12.0,0.,12.0,0.,12.0
1979-07-28 09:36:50.290 ,1,1,0.,12.0,0.,12.0,0.,12.0,0.,12.0
1979-07-28 09:37:02.290 ,1,1,0.,12.0,0.,12.0,0.,12.0,0.,12.0
1979-07-28 09:37:14.290 ,1,0,0.,12.0,0.,12.0,0.,12.0,0.,12.0
1979-07-28 09:37:26.290 ,1,0,0.,12.0,0.,12.0,0.,12.0,0.,12.0
1979-07-28 09:37:38.290 ,2,1,0.,12.0,0.,12.0,0.,12.0,0.,12.0
1979-07-28 09:37:50.290 ,2,1,0.,12.0,0.,12.0,0.,12.0,0.,12.0
1979-07-28 09:38:02.290 ,2,0,0.,12.0,0.,12.0,0.,12.0,0.,12.0
1979-07-28 09:38:14.290 ,2,0,0.,12.0,0.,12.0,0.,12.0,0.,12.0
1979-07-28 09:38:26.290 ,3,1,0.,12.0,0.,12.0,0.,12.0,0.,12.0
1979-07-28 09:38:38.290 ,3,1,0.,12.0,0.,12.0,0.,12.0,0.,12.0
1979-07-28 09:38:50.290 ,3,0,0.,12.0,0.,12.0,0.,12.0,0.,12.0
1979-07-28 09:39:02.290 ,3,0,0.,12.0,0.,12.0,0.,12.0,0.,12.0
1979-07-28 09:39:14.290 ,0,0,0.,12.0,0.,12.0,0.,12.0,0.,12.0
1979-07-28 09:39:26.290 ,0,0,0.,12.0,0.,12.0,0.,12.0,0.,12.0
1979-07-28 09:39:38.290 ,0,0,0.,12.0,0.,12.0,0.,12.0,0.,12.0
1979-07-28 09:39:50.290 ,0,0,0.,12.0,0.,12.0,0.,12.0,0.,12.0
1979-07-28 09:40:02.290 ,5,1,0.,12.0,0.,12.0,0.,12.0,0.,12.0
1979-07-28 09:40:14.290 ,5,1,0.,12.0,0.,12.0,0.,12.0,0.,12.0
1979-07-28 09:40:26.290 ,5,0,0.,12.0,0.,12.0,0.,12.0,0.,12.0
1979-07-28 09:40:38.290 ,5,0,0.,12.0,0.,12.0,0.,12.0,0.,12.0
1979-07-28 09:40:50.290 ,6,1,0.,12.0,0.,12.0,0.,12.0,0.,12.0
1979-07-28 09:41:02.290 ,6,1,0.,12.0,0.,12.0,0.,12.0,0.,12.0
1979-07-28 09:41:14.290 ,6,0,0.,12.0,0.,12.0,0.,12.0,0.,12.0
1979-07-28 09:41:26.290 ,6,0,0.,12.0,0.,12.0,0.,12.0,0.,12.0
1979-07-28 09:41:38.290 ,7,1,0.,12.0,0.,12.0,0.,12.0,0.,12.0
1979-07-28 09:41:50.290 ,7,1,0.,12.0,0.,12.0,0.,12.0,0.,12.0
1979-07-28 09:42:02.290 ,7,0,0.,12.0,0.,12.0,0.,12.0,0.,12.0
1979-07-28 09:42:14.290 ,7,0,0.,12.0,0.,12.0,0.,12.0,0.,12.0
1979-07-28 09:42:26.290 ,7,1,0.,12.0,0.,12.0,0.,12.0,0.,12.0
1979-07-28 09:42:38.290 ,7,1,0.,12.0,0.,12.0,0.,12.0,0.,12.0
1979-07-28 09:42:50.290 ,7,0,0.,12.0,0.,12.0,0.,12.0,0.,12.0
1979-07-28 09:43:02.290 ,7,0,0.,12.0,0.,12.0,0.,12.0,0.,12.0
1979-07-28 09:43:14.290 ,6,1,0.,12.0,0.,12.0,0.,12.0,0.,12.0
1979-07-28 09:43:26.290 ,6,1,0.,12.0,0.,12.0,0.,12.0,0.,12.0
1979-07-28 09:43:38.290 ,6,0,0.,12.0,0.,12.0,0.,12.0,0.,12.0
1979-07-28 09:43:50.290 ,6,0,0.,12.0,0.,12.0,0.,12.0,0.,12.0
1979-07-28 09:44:02.290 ,5,1,0.,12.0,0.,12.0,0.,12.0,0.,12.0
1979-07-28 09:44:14.290 ,5,1,0.,12.0,0.,12.0,0.,12.0,0.,12.0
1979-07-28 09:44:26.290 ,5,0,0.,12.0,0.,12.0,0.,12.0,0.,12.0
1979-07-28 09:44:38.290 ,5,0,0.,12.0,0.,12.0,0.,12.0,0.,12.0
1979-07-28 09:44:50.290 ,4,1,0.,12.0,0.,12.0,0.,12.0,0.,12.0
1979-07-28 09:45:02.290 ,4,1,0.,12.0,0.,12.0,0.,12.0,0.,12.0
1979-07-28 09:45:14.290 ,4,0,0.,12.0,0.,12.0,0.,12.0,0.,12.0
1979-07-28 09:45:26.290 ,4,0,0.,12.0,0.,12.0,0.,12.0,0.,12.0
1979-07-28 09:45:38.290 ,3,1,0.,12.0,0.,12.0,0.,12.0,0.,12.0
1979-07-28 09:45:50.290 ,3,1,0.,12.0,0.,12.0,0.,12.0,0.,12.0
1979-07-28 09:46:02.290 ,3,0,0.,12.0,0.,12.0,0.,12.0,0.,12.0
1979-07-28 09:46:14.290 ,3,0,0.,12.0,0.,12.0,0.,12.0,0.,12.0
1979-07-28 09:46:26.290 ,2,1,0.,12.0,0.,12.0,0.,12.0,0.,12.0
1979-07-28 09:46:38.290 ,2,1,0.,12.0,0.,12.0,0.,12.0,0.,12.0
1979-07-28 09:46:50.290 ,2,0,0.,12.0,0.,12.0,0.,12.0,0.,12.0
1979-07-28 09:47:02.290 ,2,0,0.,12.0,0.,12.0,0.,12.0,0.,12.0
1979-07-28 09:47:14.290 ,1,1,0.,12.0,0.,12.0,0.,12.0,0.,12.0
1979-07-28 09:47:26.290 ,1,1,0.,12.0,0.,12.0,0.,12.0,0.,12.0
1979-07-28 09:47:38.290 ,1,0,0.,12.0,0.,12.0,0.,12.0,0.,12.0
1979-07-28 09:47:50.290 ,1,0,0.,12.0,0.,12.0,0.,12.0,0.,12.0
1979-07-28 09:48:02.290 ,0,1,0.,12.0,0.,12.0,0.,12.0,0.,12.0
1979-07-28 09:48:14.290 ,0,1,0.,12.0,0.,12.0,0.,12.0,0.,12.0
1979-07-28 09:48:26.290 ,0,0,0.,12.0,0.,12.0,0.,12.0,0.,12.0
1979-07-28 09:48:38.290 ,0,0,0.,12.0,0.,12.0,0.,12.0,0.,12.0
1979-07-28 09:48:50.290 ,0,1,0.,12.0,0.,12.0,0.,12.0,0.,12.0
1979-07-28 09:49:02.290 ,0,1,0.,12.0,0.,12.0,0.,12.0,0.,12.0
1979-07-28 09:49:14.290 ,0,0,0.,12.0,0.,12.0,0.,12.0,0.,12.0
1979-07-28 09:49:26.290 ,0,0,0.,12.0,0.,12.0,0.,12.0,0.,12.0
1979-07-28 09:49:38.290 ,1,1,0.,12.0,0.,12.0,0.,12.0,0.,12.0
1979-07-28 09:49:50.290 ,1,1,0.,12.0,0.,12.0,0.,12.0,0.,12.0
1979-07-28 09:50:02.290 ,1,0,0.,12.0,0.,12.0,0.,12.0,0.,12.0
1979-07-28 09:50:14.290 ,1,0,0.,12.0,0.,12.0,0.,12.0,0.,12.0
1979-07-28 09:50:26.290 ,2,1,0.,12.0,0.,12.0,0.,12.0,0.,12.0
1979-07-28 09:50:38.290 ,2,1,0.,12.0,0.,12.0,0.,12.0,0.,12.0
1979-07-28 09:50:50.290 ,2,0,0.,12.0,0.,12.0,0.,12.0,0.,12.0
1979-07-28 09:51:02.290 ,2,0,0.,12.0,0.,12.0,0.,12.0,0.,12.0
1979-07-28 09:51:14.290 ,3,1,0.,12.0,0.,12.0,0.,12.0,0.,12.0
1979-07-28 09:51:26.290 ,3,1,0.,12.0,0.,12.0,0.,12.0,0.,12.0
1979-07-28 09:51:38.290 ,3,0,0.,12.0,0.,12.0,0.,12.0,0.,12.0
1979-07-28 09:51:50.290 ,3,0,0.,12.0,0.,12.0,0.,12.0,0.,12.0
1979-07-28 09:52:02.290 ,4,1,0.,12.0,0.,12.0,0.,12.0,0.,12.0
1979-07-28 09:52:14.290 ,4,1,0.,12.0,0.,12.0,0.,12.0,0.,12.0
1979-07-28 09:52:26.290 ,4,0,0.,12.0,0.,12.0,0.,12.0,0.,12.0
1979-07-28 09:52:38.290 ,4,0,0.,12.0,0.,12.0,0.,12.0,0.,12.0
1979-07-28 09:52:50.290 ,5,1,0.,12.0,0.,12.0,0.,12.0,0.,12.0
1979-07-28 09:53:02.290 ,5,1,0.,12.0,0.,12.0,0.,12.0,0.,12.0
1979-07-28 09:53:14.290 ,5,0,0.,12.0,0.,12.0,0.,12.0,0.,12.0
1979-07-28 09:53:26.290 ,5,0,0.,12.0,0.,12.0,0.,12.0,0.,12.0
1979-07-28 09:53:38.290 ,6,1,0.,12.0,0.,12.0,0.,12.0,0.,12.0
1979-07-28 09:53:50.290 ,6,1,0.,12.0,0.,12.0,0.,12.0,0.,12.0
1979-07-28 09:54:02.290 ,6,0,0.,12.0,0.,12.0,0.,12.0,0.,12.0
1979-07-28 09:54:14.290 ,6,0,0.,12.0,0.,12.0,0.,12.0,0.,12.0
1979-07-28 09:54:26.290 ,7,0,0.,12.0,0.,12.0,0.,12.0,0.,12.0
1979-07-28 09:54:38.290 ,7,0,0.,12.0,0.,12.0,0.,12.0,0.,12.0
1979-07-28 09:54:50.290 ,7,0,0.,12.0,0.,12.0,0.,12.0,0.,12.0
1979-07-28 09:55:02.290 ,7,0,0.,12.0,0.,12.0,0.,12.0,0.,12.0
1979-07-28 09:55:14.290 ,4,1,0.,12.0,0.,12.0,0.,12.0,0.,12.0
1979-07-28 09:55:26.290 ,4,1,0.,12.0,0.,12.0,0.,12.0,0.,12.0
1979-07-28 09:55:38.290 ,0,1,0.,12.0,0.,12.0,0.,12.0,0.,12.0
1979-07-28 09:55:50.290 ,0,1,0.,12.0,0.,12.0,0.,12.0,0.,12.0
1979-07-28 09:56:02.290 ,3,1,0.,12.0,0.,12.0,0.,12.0,0.,12.0
1979-07-28 09:56:14.290 ,3,1,0.,12.0,0.,12.0,0.,12.0,0.,12.0
1979-07-28 09:56:26.290 ,7,1,0.,12.0,0.,12.0,0.,12.0,0.,12.0
1979-07-28 09:56:38.290 ,7,1,0.,12.0,0.,12.0,0.,12.0,0.,12.0
1979-07-28 09:56:50.290 ,4,1,0.,12.0,0.,12.0,0.,12.0,0.,12.0
1979-07-28 09:57:02.290 ,4,1,0.,12.0,0.,12.0,0.,12.0,0.,12.0
1979-07-28 09:57:14.290 ,0,1,0.,12.0,0.,12.0,0.,12.0,0.,12.0
1979-07-28 09:57:26.290 ,0,1,0.,12.0,0.,12.0,0.,12.0,0.,12.0
1979-07-28 09:57:38.290 ,3,1,0.,12.0,0.,12.0,0.,12.0,0.,12.0
1979-07-28 09:57:50.290 ,3,1,0.,12.0,0.,12.0,0.,12.0,0.,12.0
1979-07-28 09:58:02.290 ,7,1,0.,12.0,0.,12.0,0.,12.0,0.,12.0
1979-07-28 09:58:14.290 ,7,1,0.,12.0,0.,12.0,0.,12.0,0.,12.0
1979-07-28 09:58:26.290 ,4,1,0.,12.0,0.,12.0,0.,12.0,0.,12.0
1979-07-28 09:58:38.290 ,4,1,0.,12.0,0.,12.0,0.,12.0,0.,12.0
1979-07-28 09:58:50.290 ,0,1,0.,12.0,0.,12.0,0.,12.0,0.,12.0
1979-07-28 09:59:02.290 ,0,1,0.,12.0,0.,12.0,0.,12.0,0.,12.0
1979-07-28 09:59:14.290 ,3,1,0.,12.0,0.,12.0,0.,12.0,0.,12.0
1979-07-28 09:59:26.290 ,3,1,0.,12.0,0.,12.0,0.,12.0,0.,12.0
1979-07-28 09:59:38.290 ,7,1,0.,12.0,0.,12.0,0.,12.0,0.,12.0
1979-07-28 09:59:50.290 ,7,1,0.,12.0,0.,12.0,0.,12.0,0.,12.0
1979-07-28 10:00:02.290 ,4,1,0.,12.0,0.,12.0,0.,12.0,0.,12.0
1979-07-28 10:00:14.290 ,4,1,0.,12.0,0.,12.0,0.,12.0,0.,12.0
1979-07-28 10:00:26.290 ,0,1,0.,12.0,0.,12.0,0.,12.0,0.,12.0
1979-07-28 10:00:38.290 ,0,1,0.,12.0,0.,12.0,0.,12.0,0.,12.0
1979-07-28 10:00:50.290 ,3,1,0.,12.0,0.,12.0,0.,12.0,0.,12.0
1979-07-28 10:01:02.290 ,3,1,0.,12.0,0.,12.0,0.,12.0,0.,12.0
1979-07-28 10:01:14.290 ,7,1,0.,12.0,0.,12.0,0.,12.0,0.,12.0
1979-07-28 10:01:26.290 ,7,1,0.,12.0,0.,12.0,0.,12.0,0.,12.0
1979-07-28 10:01:38.290 ,4,1,0.,12.0,0.,12.0,0.,12.0,0.,12.0
1979-07-28 10:01:50.290 ,4,1,0.,12.0,0.,12.0,0.,12.0,0.,12.0
1979-07-28 10:02:02.290 ,0,0,0.,12.0,0.,12.0,0.,12.0,0.,12.0
1979-07-28 10:02:14.290 ,0,0,0.,12.0,0.,12.0,0.,12.0,0.,12.0
1979-07-28 10:02:26.290 ,0,0,0.,12.0,0.,12.0,0.,12.0,0.,12.0
1979-07-28 10:02:38.290 ,0,0,0.,12.0,0.,12.0,0.,12.0,0.,12.0
1979-07-28 10:02:50.290 ,7,1,0.,12.0,0.,12.0,0.,12.0,0.,12.0
1979-07-28 10:03:02.290 ,7,1,0.,12.0,0.,12.0,0.,12.0,0.,12.0
1979-07-28 10:03:14.290 ,4,1,0.,12.0,0.,12.0,0.,12.0,0.,12.0
1979-07-28 10:03:26.290 ,4,1,0.,12.0,0.,12.0,0.,12.0,0.,12.0
1979-07-28 10:03:38.290 ,0,1,0.,12.0,0.,12.0,0.,12.0,0.,12.0
1979-07-28 10:03:50.290 ,0,1,0.,12.0,0.,12.0,0.,12.0,0.,12.0
1979-07-28 10:04:02.290 ,3,1,0.,12.0,0.,12.0,0.,12.0,0.,12.0
1979-07-28 10:04:14.290 ,3,1,0.,12.0,0.,12.0,0.,12.0,0.,12.0
1979-07-28 10:04:26.290 ,7,1,0.,12.0,0.,12.0,0.,12.0,0.,12.0
1979-07-28 10:04:38.290 ,7,1,0.,12.0,0.,12.0,0.,12.0,0.,12.0
1979-07-28 10:04:50.290 ,4,1,0.,12.0,0.,12.0,0.,12.0,0.,12.0
1979-07-28 10:05:02.290 ,4,1,0.,12.0,0.,12.0,0.,12.0,0.,12.0
1979-07-28 10:05:14.290 ,0,1,0.,12.0,0.,12.0,0.,12.0,0.,12.0
1979-07-28 10:05:26.290 ,0,1,0.,12.0,0.,12.0,0.,12.0,0.,12.0
1979-07-28 10:05:38.290 ,0,0,0.,12.0,0.,12.0,0.,12.0,0.,12.0
1979-07-28 10:05:50.290 ,0,0,0.,12.0,0.,12.0,0.,12.0,0.,12.0
1979-07-28 10:06:02.290 ,0,0,0.,12.0,0.,12.0,0.,12.0,0.,12.0
1979-07-28 10:06:14.290 ,0,0,0.,12.0,0.,12.0,0.,12.0,0.,12.0
1979-07-28 10:06:26.290 ,5,1,0.,12.0,0.,12.0,0.,12.0,0.,12.0
1979-07-28 10:06:38.290 ,5,1,0.,12.0,0.,12.0,0.,12.0,0.,12.0
1979-07-28 10:06:50.290 ,5,0,0.,12.0,0.,12.0,0.,12.0,0.,12.0
1979-07-28 10:07:02.290 ,5,0,0.,12.0,0.,12.0,0.,12.0,0.,12.0
1979-07-28 10:07:14.290 ,4,1,0.,12.0,0.,12.0,0.,12.0,0.,12.0
1979-07-28 10:07:26.290 ,4,1,0.,12.0,0.,12.0,0.,12.0,0.,12.0
1979-07-28 10:07:38.290 ,4,0,0.,12.0,0.,12.0,0.,12.0,0.,12.0
1979-07-28 10:07:50.290 ,4,0,0.,12.0,0.,12.0,0.,12.0,0.,12.0
1979-07-28 10:08:02.290 ,3,1,0.,12.0,0.,12.0,0.,12.0,0.,12.0
1979-07-28 10:08:14.290 ,3,1,0.,12.0,0.,12.0,0.,12.0,0.,12.0
1979-07-28 10:08:26.290 ,3,0,0.,12.0,0.,12.0,0.,12.0,0.,12.0
1979-07-28 10:08:38.290 ,3,0,0.,12.0,0.,12.0,0.,12.0,0.,12.0
1979-07-28 10:08:50.290 ,2,1,0.,12.0,0.,12.0,0.,12.0,0.,12.0
1979-07-28 10:09:02.290 ,2,1,0.,12.0,0.,12.0,0.,12.0,0.,12.0
1979-07-28 10:09:14.290 ,2,0,0.,12.0,0.,12.0,0.,12.0,0.,12.0
1979-07-28 10:09:26.290 ,2,0,0.,12.0,0.,12.0,0.,12.0,0.,12.0
1979-07-28 10:09:38.290 ,1,1,0.,12.0,0.,12.0,0.,12.0,0.,12.0
1979-07-28 10:09:50.290 ,1,1,0.,12.0,0.,12.0,0.,12.0,0.,12.0
1979-07-28 10:10:02.290 ,1,0,0.,12.0,0.,12.0,0.,12.0,0.,12.0
1979-07-28 10:10:14.290 ,1,0,0.,12.0,0.,12.0,0.,12.0,0.,12.0
1979-07-28 10:10:26.290 ,0,1,0.,12.0,0.,12.0,0.,12.0,0.,12.0
1979-07-28 10:10:38.290 ,0,1,0.,12.0,0.,12.0,0.,12.0,0.,12.0
1979-07-28 10:10:50.290 ,0,0,0.,12.0,0.,12.0,0.,12.0,0.,12.0
1979-07-28 10:11:02.290 ,0,0,0.,12.0,0.,12.0,0.,12.0,0.,12.0
1979-07-28 10:11:14.290 ,0,1,0.,12.0,0.,12.0,0.,12.0,0.,12.0
1979-07-28 10:11:26.290 ,0,1,0.,12.0,0.,12.0,0.,12.0,0.,12.0
1979-07-28 10:11:38.290 ,0,0,0.,12.0,0.,12.0,0.,12.0,0.,12.0
1979-07-28 10:11:50.290 ,0,0,0.,12.0,0.,12.0,0.,12.0,0.,12.0
1979-07-28 10:12:02.290 ,1,1,0.,12.0,0.,12.0,0.,12.0,0.,12.0
1979-07-28 10:12:14.290 ,1,1,0.,12.0,0.,12.0,0.,12.0,0.,12.0
1979-07-28 10:12:26.290 ,1,0,0.,12.0,0.,12.0,0.,12.0,0.,12.0
1979-07-28 10:12:38.290 ,1,0,0.,12.0,0.,12.0,0.,12.0,0.,12.0
1979-07-28 10:12:50.290 ,2,1,0.,12.0,0.,12.0,0.,12.0,0.,12.0
1979-07-28 10:13:02.290 ,2,1,0.,12.0,0.,12.0,0.,12.0,0.,12.0
1979-07-28 10:13:14.290 ,2,0,0.,12.0,0.,12.0,0.,12.0,0.,12.0
1979-07-28 10:13:26.290 ,2,0,0.,12.0,0.,12.0,0.,12.0,0.,12.0
1979-07-28 10:13:38.290 ,3,1,0.,12.0,0.,12.0,0.,12.0,0.,12.0
1979-07-28 10:13:50.290 ,3,1,0.,12.0,0.,12.0,0.,12.0,0.,12.0
1979-07-28 10:14:02.290 ,3,0,0.,12.0,0.,12.0,0.,12.0,0.,12.0
1979-07-28 10:14:14.290 ,3,0,0.,12.0,0.,12.0,0.,12.0,0.,12.0
1979-07-28 10:14:26.290 ,4,1,0.,12.0,0.,12.0,0.,12.0,0.,12.0
1979-07-28 10:14:38.290 ,4,1,0.,12.0,0.,12.0,0.,12.0,0.,12.0
1979-07-28 10:14:50.290 ,4,0,0.,12.0,0.,12.0,0.,12.0,0.,12.0
1979-07-28 10:15:02.290 ,4,0,0.,12.0,0.,12.0,0.,12.0,0.,12.0
1979-07-28 10:15:14.290 ,5,1,0.,12.0,0.,12.0,0.,12.0,0.,12.0
1979-07-28 10:15:26.290 ,5,1,0.,12.0,0.,12.0,0.,12.0,0.,12.0
1979-07-28 10:15:38.290 ,5,0,0.,12.0,0.,12.0,0.,12.0,0.,12.0
1979-07-28 10:15:50.290 ,5,0,0.,12.0,0.,12.0,0.,12.0,0.,12.0
1979-07-28 10:16:02.290 ,6,1,0.,12.0,0.,12.0,0.,12.0,0.,12.0
1979-07-28 10:16:14.290 ,6,1,0.,12.0,0.,12.0,0.,12.0,0.,12.0
1979-07-28 10:16:26.290 ,6,0,0.,12.0,0.,12.0,0.,12.0,0.,12.0
1979-07-28 10:16:38.290 ,6,0,0.,12.0,0.,12.0,0.,12.0,0.,12.0
1979-07-28 10:16:50.290 ,7,1,0.,12.0,0.,12.0,0.,12.0,0.,12.0
1979-07-28 10:17:02.290 ,7,1,0.,12.0,0.,12.0,0.,12.0,0.,12.0
1979-07-28 10:17:14.290 ,7,0,0.,12.0,0.,12.0,0.,12.0,0.,12.0
1979-07-28 10:17:26.290 ,7,0,0.,12.0,0.,12.0,0.,12.0,0.,12.0